Regional Weather Roundup
Issued by NWS

Home | Current Version | Previous Version | Text Only | Print | Product List | Glossary On
Versions: 1 2 3 4 5 6 7 8 9 10 11 12 13 14 15 16 17 18 19 20 21 22 23 24 25 26 27 28 29 30 31 32 33 34 35 36 37 38 39 40 41 42 43 44 45 46 47 48 49 50
000
ASUS43 KFSD 162210
RWRSD

WEATHER ROUNDUP FOR SOUTH DAKOTA
NATIONAL WEATHER SERVICE SIOUX FALLS SD
400 PM CST SAT DEC 16 2017

NOTE: "FAIR" INDICATES FEW OR NO CLOUDS BELOW 12,000 FEET WITH NO
SIGNIFICANT WEATHER AND/OR OBSTRUCTIONS TO VISIBILITY.


SDZ001>005-009-010-012>017-162300-
NORTHWEST AND NORTH CENTRAL SOUTH DAKOTA

CITY           SKY/WX    TMP DP  RH WIND       PRES   REMARKS
BUFFALO          N/A     36  22  56 N13       29.90R
FAITH            N/A     37  27  67 NW15      29.95R
MOBRIDGE       CLOUDY    41  31  67 NE9       29.93S
$$

SDZ012>016-024>037-041>051-057-063-072>074-162300-
SOUTHWEST AND SOUTH CENTRAL SOUTH DAKOTA

CITY           SKY/WX    TMP DP  RH WIND       PRES   REMARKS
RAPID CTY ARPT FLURRIES  33  28  81 NW13      29.95R WCI  24
PIERRE         CLOUDY    40  32  73 N8        29.95R
CUSTER         LGT SNOW  28  24  85 NE7       29.87R FOG     WCI  21
ELLSWORTH AFB  CLOUDY    34  30  86 NW10      29.94  WCI  26
PHILIP         MOCLDY    40  30  67 N9        29.95R
PINE RIDGE     PTSUNNY   38  28  67 N10       29.93R
SPEARFISH      FAIR      32  27  80 W3        29.96R
WINNER         CLOUDY    42  33  70 N10       29.94R
$$

SDZ004>011-016>023-039-040-162300-
NORTHEAST SOUTH DAKOTA

CITY           SKY/WX    TMP DP  RH WIND       PRES   REMARKS
ABERDEEN       CLOUDY    40  32  73 N7        29.96R
WATERTOWN      CLOUDY    37  34  89 N8        29.93R
BROOKINGS      MOCLDY    39  33  79 N7        29.93R
SISSETON         N/A     37  33  85 N6        29.95R
$$

SDZ017-020-022-023-036>040-048>070-162300-
SOUTHEAST SOUTH DAKOTA

CITY           SKY/WX    TMP DP  RH WIND       PRES   REMARKS
SIOUX FALLS    MOCLDY    43  33  68 N12       29.92R
HURON          CLOUDY    42  33  70 N9        29.95R
CHAMBERLAIN    CLOUDY    43  36  75 N3        29.94R
MITCHELL       CLOUDY    43  35  73 N10       29.95R
YANKTON        MOCLDY    43  34  70 N12       29.92R
$$

ABBREVIATIONS USED IN REMARKS
   TC - TEMPERATURE IN CELSIUS
  WCI - WIND CHILL INDEX
   HX - HEAT INDEX
  VSB - VISIBILITY




USA.gov is the U.S. government's official web portal to all federal, state and local government web resources and services.